<?xml version="1.0" encoding="UTF-8" standalone="no" ?>
<gpx xmlns="http://www.topografix.com/GPX/1/1" xmlns:xsi="http://www.w3.org/2001/XMLSchema-instance" xsi:schemaLocation="http://www.topografix.com/GPX/1/1 http://www.topografix.com/GPX/1/1/gpx.xsd" version="1.1" creator="VisuGPX - https://www.visugpx.com">
  <metadata>
    <name>abbaretz_mine_7-9km</name>
    <desc><![CDATA[groupeM1 gnerando]]></desc>
  </metadata>
  <trk>
    <name><![CDATA[Abbaretz_Mine_7km-8309241]]></name>
    <extensions>
      <line xmlns="http://www.topografix.com/GPX/gpx_style/0/2">
        <color>0000FF</color>
        <width>4</width>
      </line>
    </extensions>
    <trkseg>
      <trkpt lat="47.55442" lon="-1.53327">
        <ele>65</ele>
        <time>2022-11-29T18:06:49Z</time>
      </trkpt>
      <trkpt lat="47.55495" lon="-1.53298">
        <ele>65</ele>
        <time>2022-11-29T18:08:04Z</time>
      </trkpt>
      <trkpt lat="47.55539" lon="-1.53279">
        <ele>64</ele>
        <time>2022-11-29T18:09:06Z</time>
      </trkpt>
      <trkpt lat="47.5556" lon="-1.53327">
        <ele>64</ele>
        <time>2022-11-29T18:09:57Z</time>
      </trkpt>
      <trkpt lat="47.55556" lon="-1.53393">
        <ele>64</ele>
        <time>2022-11-29T18:10:57Z</time>
      </trkpt>
      <trkpt lat="47.55561" lon="-1.53439">
        <ele>63</ele>
        <time>2022-11-29T18:11:39Z</time>
      </trkpt>
      <trkpt lat="47.55584" lon="-1.53487">
        <ele>62</ele>
        <time>2022-11-29T18:12:32Z</time>
      </trkpt>
      <trkpt lat="47.55587" lon="-1.53538">
        <ele>62</ele>
        <time>2022-11-29T18:13:18Z</time>
      </trkpt>
      <trkpt lat="47.55609" lon="-1.53592">
        <ele>61</ele>
        <time>2022-11-29T18:14:15Z</time>
      </trkpt>
      <trkpt lat="47.55613" lon="-1.53644">
        <ele>61</ele>
        <time>2022-11-29T18:15:02Z</time>
      </trkpt>
      <trkpt lat="47.55686" lon="-1.53664">
        <ele>62</ele>
        <time>2022-11-29T18:16:41Z</time>
      </trkpt>
      <trkpt lat="47.55689" lon="-1.53662">
        <ele>62</ele>
        <time>2022-11-29T18:16:45Z</time>
      </trkpt>
      <trkpt lat="47.55714" lon="-1.53697">
        <ele>63</ele>
        <time>2022-11-29T18:17:31Z</time>
      </trkpt>
      <trkpt lat="47.55723" lon="-1.53752">
        <ele>63</ele>
        <time>2022-11-29T18:18:22Z</time>
      </trkpt>
      <trkpt lat="47.55721" lon="-1.53811">
        <ele>61</ele>
        <time>2022-11-29T18:19:15Z</time>
      </trkpt>
      <trkpt lat="47.55728" lon="-1.53869">
        <ele>61</ele>
        <time>2022-11-29T18:20:08Z</time>
      </trkpt>
      <trkpt lat="47.55745" lon="-1.5393">
        <ele>62</ele>
        <time>2022-11-29T18:21:08Z</time>
      </trkpt>
      <trkpt lat="47.55754" lon="-1.53977">
        <ele>63</ele>
        <time>2022-11-29T18:21:52Z</time>
      </trkpt>
      <trkpt lat="47.55772" lon="-1.54079">
        <ele>61</ele>
        <time>2022-11-29T18:23:27Z</time>
      </trkpt>
      <trkpt lat="47.5578" lon="-1.54124">
        <ele>60</ele>
        <time>2022-11-29T18:24:09Z</time>
      </trkpt>
      <trkpt lat="47.55791" lon="-1.54169">
        <ele>59</ele>
        <time>2022-11-29T18:24:52Z</time>
      </trkpt>
      <trkpt lat="47.55877" lon="-1.54173">
        <ele>57</ele>
        <time>2022-11-29T18:26:47Z</time>
      </trkpt>
      <trkpt lat="47.55944" lon="-1.54171">
        <ele>58</ele>
        <time>2022-11-29T18:28:16Z</time>
      </trkpt>
      <trkpt lat="47.55942" lon="-1.54023">
        <ele>58</ele>
        <time>2022-11-29T18:30:29Z</time>
      </trkpt>
      <trkpt lat="47.55955" lon="-1.53862">
        <ele>56</ele>
        <time>2022-11-29T18:32:55Z</time>
      </trkpt>
      <trkpt lat="47.5596" lon="-1.53745">
        <ele>55</ele>
        <time>2022-11-29T18:34:41Z</time>
      </trkpt>
      <trkpt lat="47.56004" lon="-1.53678">
        <ele>52</ele>
        <time>2022-11-29T18:36:05Z</time>
      </trkpt>
      <trkpt lat="47.56066" lon="-1.53652">
        <ele>51</ele>
        <time>2022-11-29T18:37:31Z</time>
      </trkpt>
      <trkpt lat="47.56134" lon="-1.53608">
        <ele>50</ele>
        <time>2022-11-29T18:39:10Z</time>
      </trkpt>
      <trkpt lat="47.56195" lon="-1.53586">
        <ele>48</ele>
        <time>2022-11-29T18:40:34Z</time>
      </trkpt>
      <trkpt lat="47.56246" lon="-1.53595">
        <ele>49</ele>
        <time>2022-11-29T18:41:42Z</time>
      </trkpt>
      <trkpt lat="47.56285" lon="-1.53611">
        <ele>49</ele>
        <time>2022-11-29T18:42:36Z</time>
      </trkpt>
      <trkpt lat="47.56334" lon="-1.53649">
        <ele>48</ele>
        <time>2022-11-29T18:43:50Z</time>
      </trkpt>
      <trkpt lat="47.56365" lon="-1.53689">
        <ele>49</ele>
        <time>2022-11-29T18:44:45Z</time>
      </trkpt>
      <trkpt lat="47.56489" lon="-1.53733">
        <ele>48</ele>
        <time>2022-11-29T18:47:35Z</time>
      </trkpt>
      <trkpt lat="47.56532" lon="-1.53767">
        <ele>46</ele>
        <time>2022-11-29T18:48:40Z</time>
      </trkpt>
      <trkpt lat="47.56537" lon="-1.53825">
        <ele>46</ele>
        <time>2022-11-29T18:49:33Z</time>
      </trkpt>
      <trkpt lat="47.5653" lon="-1.53921">
        <ele>46</ele>
        <time>2022-11-29T18:51:00Z</time>
      </trkpt>
      <trkpt lat="47.56534" lon="-1.53998">
        <ele>43</ele>
        <time>2022-11-29T18:52:09Z</time>
      </trkpt>
      <trkpt lat="47.5656" lon="-1.54073">
        <ele>41</ele>
        <time>2022-11-29T18:53:25Z</time>
      </trkpt>
      <trkpt lat="47.56569" lon="-1.54091">
        <ele>40</ele>
        <time>2022-11-29T18:53:45Z</time>
      </trkpt>
      <trkpt lat="47.56582" lon="-1.54137">
        <ele>40</ele>
        <time>2022-11-29T18:54:30Z</time>
      </trkpt>
      <trkpt lat="47.56568" lon="-1.54175">
        <ele>40</ele>
        <time>2022-11-29T18:55:09Z</time>
      </trkpt>
      <trkpt lat="47.56547" lon="-1.54191">
        <ele>40</ele>
        <time>2022-11-29T18:55:41Z</time>
      </trkpt>
      <trkpt lat="47.56534" lon="-1.54212">
        <ele>40</ele>
        <time>2022-11-29T18:56:07Z</time>
      </trkpt>
      <trkpt lat="47.56521" lon="-1.54248">
        <ele>41</ele>
        <time>2022-11-29T18:56:43Z</time>
      </trkpt>
      <trkpt lat="47.565" lon="-1.54324">
        <ele>44</ele>
        <time>2022-11-29T18:57:57Z</time>
      </trkpt>
      <trkpt lat="47.56465" lon="-1.54414">
        <ele>44</ele>
        <time>2022-11-29T18:59:31Z</time>
      </trkpt>
      <trkpt lat="47.5644" lon="-1.54454">
        <ele>43</ele>
        <time>2022-11-29T19:00:20Z</time>
      </trkpt>
      <trkpt lat="47.56423" lon="-1.54503">
        <ele>42</ele>
        <time>2022-11-29T19:01:09Z</time>
      </trkpt>
      <trkpt lat="47.56363" lon="-1.54617">
        <ele>42</ele>
        <time>2022-11-29T19:03:20Z</time>
      </trkpt>
      <trkpt lat="47.56337" lon="-1.54673">
        <ele>42</ele>
        <time>2022-11-29T19:04:21Z</time>
      </trkpt>
      <trkpt lat="47.56311" lon="-1.54695">
        <ele>42</ele>
        <time>2022-11-29T19:05:01Z</time>
      </trkpt>
      <trkpt lat="47.56264" lon="-1.54714">
        <ele>41</ele>
        <time>2022-11-29T19:06:06Z</time>
      </trkpt>
      <trkpt lat="47.56243" lon="-1.5476">
        <ele>40</ele>
        <time>2022-11-29T19:06:56Z</time>
      </trkpt>
      <trkpt lat="47.5621" lon="-1.54815">
        <ele>42</ele>
        <time>2022-11-29T19:08:02Z</time>
      </trkpt>
      <trkpt lat="47.56146" lon="-1.5487">
        <ele>45</ele>
        <time>2022-11-29T19:09:41Z</time>
      </trkpt>
      <trkpt lat="47.56113" lon="-1.54914">
        <ele>46</ele>
        <time>2022-11-29T19:10:40Z</time>
      </trkpt>
      <trkpt lat="47.56069" lon="-1.54928">
        <ele>49</ele>
        <time>2022-11-29T19:11:40Z</time>
      </trkpt>
      <trkpt lat="47.5601" lon="-1.5495">
        <ele>52</ele>
        <time>2022-11-29T19:13:01Z</time>
      </trkpt>
      <trkpt lat="47.5599" lon="-1.54969">
        <ele>52</ele>
        <time>2022-11-29T19:13:33Z</time>
      </trkpt>
      <trkpt lat="47.55968" lon="-1.54974">
        <ele>53</ele>
        <time>2022-11-29T19:14:03Z</time>
      </trkpt>
      <trkpt lat="47.55947" lon="-1.54978">
        <ele>53</ele>
        <time>2022-11-29T19:14:31Z</time>
      </trkpt>
      <trkpt lat="47.55931" lon="-1.54978">
        <ele>54</ele>
        <time>2022-11-29T19:14:52Z</time>
      </trkpt>
      <trkpt lat="47.55921" lon="-1.54942">
        <ele>54</ele>
        <time>2022-11-29T19:15:27Z</time>
      </trkpt>
      <trkpt lat="47.55916" lon="-1.54844">
        <ele>53</ele>
        <time>2022-11-29T19:16:56Z</time>
      </trkpt>
      <trkpt lat="47.55909" lon="-1.54762">
        <ele>55</ele>
        <time>2022-11-29T19:18:10Z</time>
      </trkpt>
      <trkpt lat="47.55912" lon="-1.54649">
        <ele>56</ele>
        <time>2022-11-29T19:19:52Z</time>
      </trkpt>
      <trkpt lat="47.55924" lon="-1.54642">
        <ele>55</ele>
        <time>2022-11-29T19:20:09Z</time>
      </trkpt>
      <trkpt lat="47.55925" lon="-1.5449">
        <ele>57</ele>
        <time>2022-11-29T19:22:26Z</time>
      </trkpt>
      <trkpt lat="47.55933" lon="-1.54283">
        <ele>61</ele>
        <time>2022-11-29T19:25:33Z</time>
      </trkpt>
      <trkpt lat="47.55924" lon="-1.54226">
        <ele>59</ele>
        <time>2022-11-29T19:26:26Z</time>
      </trkpt>
      <trkpt lat="47.55945" lon="-1.54215">
        <ele>61</ele>
        <time>2022-11-29T19:26:55Z</time>
      </trkpt>
      <trkpt lat="47.55998" lon="-1.54199">
        <ele>64</ele>
        <time>2022-11-29T19:28:08Z</time>
      </trkpt>
      <trkpt lat="47.56034" lon="-1.54196">
        <ele>65</ele>
        <time>2022-11-29T19:28:56Z</time>
      </trkpt>
      <trkpt lat="47.56052" lon="-1.54234">
        <ele>73</ele>
        <time>2022-11-29T19:29:38Z</time>
      </trkpt>
      <trkpt lat="47.56075" lon="-1.54344">
        <ele>84</ele>
        <time>2022-11-29T19:31:21Z</time>
      </trkpt>
      <trkpt lat="47.56134" lon="-1.54372">
        <ele>84</ele>
        <time>2022-11-29T19:32:44Z</time>
      </trkpt>
      <trkpt lat="47.56075" lon="-1.54346">
        <ele>84</ele>
        <time>2022-11-29T19:34:06Z</time>
      </trkpt>
      <trkpt lat="47.56052" lon="-1.54234">
        <ele>73</ele>
        <time>2022-11-29T19:35:51Z</time>
      </trkpt>
      <trkpt lat="47.56034" lon="-1.54195">
        <ele>65</ele>
        <time>2022-11-29T19:36:34Z</time>
      </trkpt>
      <trkpt lat="47.55972" lon="-1.54202">
        <ele>62</ele>
        <time>2022-11-29T19:37:57Z</time>
      </trkpt>
      <trkpt lat="47.55923" lon="-1.54228">
        <ele>59</ele>
        <time>2022-11-29T19:39:06Z</time>
      </trkpt>
      <trkpt lat="47.55924" lon="-1.54181">
        <ele>57</ele>
        <time>2022-11-29T19:39:49Z</time>
      </trkpt>
      <trkpt lat="47.55823" lon="-1.54188">
        <ele>58</ele>
        <time>2022-11-29T19:42:04Z</time>
      </trkpt>
      <trkpt lat="47.55809" lon="-1.54267">
        <ele>60</ele>
        <time>2022-11-29T19:43:17Z</time>
      </trkpt>
      <trkpt lat="47.5581" lon="-1.54344">
        <ele>63</ele>
        <time>2022-11-29T19:44:27Z</time>
      </trkpt>
      <trkpt lat="47.55808" lon="-1.54403">
        <ele>63</ele>
        <time>2022-11-29T19:45:20Z</time>
      </trkpt>
      <trkpt lat="47.55811" lon="-1.54454">
        <ele>62</ele>
        <time>2022-11-29T19:46:06Z</time>
      </trkpt>
      <trkpt lat="47.55809" lon="-1.54515">
        <ele>62</ele>
        <time>2022-11-29T19:47:01Z</time>
      </trkpt>
      <trkpt lat="47.55808" lon="-1.54581">
        <ele>62</ele>
        <time>2022-11-29T19:48:00Z</time>
      </trkpt>
      <trkpt lat="47.55826" lon="-1.54642">
        <ele>62</ele>
        <time>2022-11-29T19:49:00Z</time>
      </trkpt>
      <trkpt lat="47.5585" lon="-1.54679">
        <ele>61</ele>
        <time>2022-11-29T19:49:47Z</time>
      </trkpt>
      <trkpt lat="47.55842" lon="-1.54727">
        <ele>61</ele>
        <time>2022-11-29T19:50:31Z</time>
      </trkpt>
      <trkpt lat="47.55832" lon="-1.54763">
        <ele>62</ele>
        <time>2022-11-29T19:51:06Z</time>
      </trkpt>
      <trkpt lat="47.55806" lon="-1.5479">
        <ele>62</ele>
        <time>2022-11-29T19:51:49Z</time>
      </trkpt>
      <trkpt lat="47.55806" lon="-1.54858">
        <ele>61</ele>
        <time>2022-11-29T19:52:50Z</time>
      </trkpt>
      <trkpt lat="47.55805" lon="-1.54907">
        <ele>60</ele>
        <time>2022-11-29T19:53:34Z</time>
      </trkpt>
      <trkpt lat="47.55793" lon="-1.54952">
        <ele>58</ele>
        <time>2022-11-29T19:54:17Z</time>
      </trkpt>
      <trkpt lat="47.55798" lon="-1.54992">
        <ele>56</ele>
        <time>2022-11-29T19:54:54Z</time>
      </trkpt>
      <trkpt lat="47.5577" lon="-1.55003">
        <ele>56</ele>
        <time>2022-11-29T19:55:33Z</time>
      </trkpt>
      <trkpt lat="47.55694" lon="-1.54931">
        <ele>61</ele>
        <time>2022-11-29T19:57:33Z</time>
      </trkpt>
      <trkpt lat="47.55666" lon="-1.54888">
        <ele>62</ele>
        <time>2022-11-29T19:58:27Z</time>
      </trkpt>
      <trkpt lat="47.55589" lon="-1.54783">
        <ele>64</ele>
        <time>2022-11-29T20:00:47Z</time>
      </trkpt>
      <trkpt lat="47.55562" lon="-1.54689">
        <ele>65</ele>
        <time>2022-11-29T20:02:19Z</time>
      </trkpt>
      <trkpt lat="47.55541" lon="-1.54526">
        <ele>66</ele>
        <time>2022-11-29T20:04:48Z</time>
      </trkpt>
      <trkpt lat="47.55561" lon="-1.54405">
        <ele>64</ele>
        <time>2022-11-29T20:06:40Z</time>
      </trkpt>
      <trkpt lat="47.5558" lon="-1.54314">
        <ele>65</ele>
        <time>2022-11-29T20:08:06Z</time>
      </trkpt>
      <trkpt lat="47.55612" lon="-1.54259">
        <ele>66</ele>
        <time>2022-11-29T20:09:11Z</time>
      </trkpt>
      <trkpt lat="47.55617" lon="-1.54123">
        <ele>66</ele>
        <time>2022-11-29T20:11:14Z</time>
      </trkpt>
      <trkpt lat="47.55637" lon="-1.5397">
        <ele>64</ele>
        <time>2022-11-29T20:13:34Z</time>
      </trkpt>
      <trkpt lat="47.55646" lon="-1.53837">
        <ele>62</ele>
        <time>2022-11-29T20:15:35Z</time>
      </trkpt>
      <trkpt lat="47.55667" lon="-1.53731">
        <ele>62</ele>
        <time>2022-11-29T20:17:14Z</time>
      </trkpt>
      <trkpt lat="47.55684" lon="-1.53677">
        <ele>62</ele>
        <time>2022-11-29T20:18:08Z</time>
      </trkpt>
      <trkpt lat="47.55612" lon="-1.53639">
        <ele>61</ele>
        <time>2022-11-29T20:19:50Z</time>
      </trkpt>
      <trkpt lat="47.55601" lon="-1.53569">
        <ele>61</ele>
        <time>2022-11-29T20:20:55Z</time>
      </trkpt>
      <trkpt lat="47.55564" lon="-1.53438">
        <ele>63</ele>
        <time>2022-11-29T20:23:03Z</time>
      </trkpt>
      <trkpt lat="47.55557" lon="-1.53321">
        <ele>64</ele>
        <time>2022-11-29T20:24:48Z</time>
      </trkpt>
      <trkpt lat="47.55536" lon="-1.53278">
        <ele>64</ele>
        <time>2022-11-29T20:25:36Z</time>
      </trkpt>
      <trkpt lat="47.55445" lon="-1.53329">
        <ele>65</ele>
        <time>2022-11-29T20:27:46Z</time>
      </trkpt>
    </trkseg>
  </trk>
</gpx>